Home   Weather   Oslo   Past weeks

Flag for Norway Past Weather in Oslo, Norway — Yesterday and Last 2 Weeks

Now
65 °F

Mild.


Feels Like: 65 °F
Forecast: 54 / 69 °F
Wind: 5 mph from North

Location: Oslo-Blindern

Current Time: Jul 24, 2017 at 10:51:15 pm

Latest Report: Jul 24, 2017 at 10:00 pm


Visibility: 31 mi

Pressure: 29.96 "Hg

Humidity: 61%

Dew Point: 51 °F

Location of OsloLocation

Past Weather in Oslo — Graph

°F

Oslo Temperature Yesterday

Maximum temperature yesterday: 81 °F (at 3:00 pm)
Minimum temperature yesterday: 58 °F (at 6:00 am)
Average temperature yesterday: 70 °F

High & Low Weather Summary for the Past Weeks

 TemperatureHumidityPressure
High81 °F (Jul 23, 3:00 pm)100% (Jul 10, 6:00 pm)30.13 "Hg (Jul 10, 6:00 pm)
Low45 °F (Jul 13, 5:00 am)33% (Jul 23, 3:00 pm)29.50 "Hg (Jul 12, 2:00 am)
Average62 °F66%29.87 "Hg
* Reported Jul 9 9:00 pm — Jul 24 9:00 pm, Oslo. Weather by CustomWeather, © 2017

Note: Actual official high and low records may vary slightly from our data, if they occured in-between our weather recording intervals... More about our weather records

Advertising

Oslo Weather History for the Previous 24 Hours

Scroll right to see more
 ConditionsComfort  
Time TempWeatherWind HumidityBarometerVisibility
9:00 pm
Mon, Jul 24
66 °FMild.3 mph57%29.95 "Hg31 mi
8:00 pm67 °FMild.3 mph54%29.95 "Hg31 mi
7:00 pm68 °FMild.3 mph50%29.94 "HgN/A
6:00 pm68 °FMild.3 mph48%29.95 "Hg31 mi
5:00 pm69 °FPartly sunny.3 mph49%29.96 "Hg47 mi
4:00 pm69 °FMild.5 mph52%29.97 "Hg25 mi
3:00 pm68 °FMild.3 mph55%29.98 "Hg25 mi
2:00 pm65 °FOvercast.3 mph61%29.99 "Hg43 mi
1:00 pm64 °FMild.3 mph64%30.00 "Hg28 mi
12:00 pm63 °FMild.5 mph65%30.00 "HgN/A
11:00 am63 °FOvercast.6 mph65%30.00 "Hg43 mi
10:00 am62 °FCool.3 mph65%29.99 "Hg31 mi
9:00 am60 °FCool.5 mph72%29.99 "HgN/A
8:00 am59 °FOvercast.5 mph75%29.99 "Hg43 mi
7:00 am59 °FCool.3 mph79%29.99 "Hg31 mi
6:00 am60 °FRain showers. Cloudy.5 mph84%29.98 "Hg31 mi
5:00 am61 °FCool.5 mph83%29.96 "Hg31 mi
4:00 am62 °FCool.6 mph79%29.97 "HgN/A
3:00 am63 °FMild.5 mph77%29.97 "HgN/A
2:00 am63 °FMild.2 mph75%29.96 "Hg31 mi
1:00 am63 °FMild.5 mph76%29.96 "Hg31 mi
12:00 am63 °FLots of rain. Overcast.5 mph79%29.97 "Hg16 mi
11:00 pm
Sun, Jul 23
66 °FMild.3 mph66%29.97 "Hg31 mi
10:00 pm68 °FMild.5 mph60%29.95 "Hg31 mi
Weather by CustomWeather, © 2017

See weather overviewHow to use our weather pages